[[{"header":{"parameterUnit":"m.s-1","parameterCategory":1,"la1":30.2991,"la2":30.254,"lo1":-89.0895,"lo2":-89.0444,"dy":0.0017,"dx":0.0017,"nx":28,"ny":28,"refTime":"2025-12-17T03:00:00:Z","depth":0,"parameterNumber":2,"parameterNumberName":"U-component_of_WINDS"},"data":[0,0,0,0,0,0,0,0,0,0,0,0,0,0,0,0,0,0,0,0,0,0,0,0,0,0,0,0,0,0,0,0,0,0,0,0,0,0,0,0,0,0,0,0,0,0,0,0,0,0,0,0,0,0,0,0,0,0,-6.0311,-6.0312,0,-6.0388,-6.0389,-6.039,-6.0269,-6.0265,-6.0261,-6.0257,-6.0334,-6.034,-6.0346,0,0,0,0,0,0,0,0,0,0,0,0,0,-6.006,-6.0065,-6.0311,-6.0312,-6.0313,-6.0388,-6.0389,-6.039,-6.027,-6.0265,-6.0259,-6.0255,-6.0332,-6.0339,-6.0346,0,0,0,0,0,0,0,0,0,0,0,0,0,-6.0156,-6.0067,-6.0311,-6.0262,-6.0259,-6.0388,-6.0389,-6.039,-6.0271,-6.0264,-6.0258,-6.0252,-6.033,-6.0339,-6.0347,-6.0527,0,0,-6.0375,-6.0378,0,0,0,0,0,0,0,0,-6.0151,-6.0166,-6.0268,-6.0266,-6.0262,-6.0312,-6.0329,-6.0436,-6.0272,-6.0266,-6.0256,-6.0249,-6.0332,-6.034,-6.0368,-6.0531,-6.0534,-6.0375,-6.0381,-6.0385,-6.0387,0,0,0,0,0,0,0,-6.0145,-6.0162,-6.0341,-6.027,-6.0266,-6.0236,-6.0243,-6.0348,-6.0333,-6.0266,-6.0258,-6.0268,-6.0329,-6.036,-6.0369,-6.0535,-6.0375,-6.0383,-6.0389,-6.0392,-6.0849,-6.0855,0,0,0,0,0,0,-6.0144,-6.0157,-6.0339,-6.0344,-6.019,-6.0246,-6.0253,-6.0303,-6.0332,-6.033,-6.0274,-6.0262,-6.0348,-6.0359,-6.0372,-6.0582,-6.0385,-6.0393,-6.0398,-6.0842,-6.085,-6.0857,0,0,0,0,0,0,-6.0139,-6.0161,-6.0336,-6.0248,-6.0268,-6.0257,-6.0313,-6.0307,-6.0338,-6.0337,-6.0334,-6.0308,-6.0343,-6.0359,-6.0489,-6.0584,-6.0397,-6.0405,-6.0834,-6.0844,-6.0854,-6.1007,0,0,0,0,0,0,-6.0132,-6.016,-6.0229,-6.0251,-6.0273,-6.0453,-6.0319,-6.0313,-6.0354,-6.034,-6.0369,-6.0367,-6.034,-6.0477,-6.0498,-6.0592,-6.0412,-6.0825,-6.0839,-6.0851,-6.0994,-6.1021,-6.1045,0,0,0,0,0,-6.0124,-6.0269,-6.0233,-6.0255,-6.0358,-6.0459,-6.0472,-6.0437,-6.0362,-6.043,-6.043,-6.0367,-6.0571,-6.0491,-6.0514,-6.0613,-6.0819,-6.0835,-6.085,-6.0982,-6.1016,-6.1045,0,0,0,0,0,0,-6.0257,-6.0271,-6.0231,-6.0387,-6.0423,-6.0438,-6.0523,-6.0474,-6.0531,-6.0516,-6.047,-6.0478,-6.0617,-6.0628,-6.0539,-6.0788,-6.0682,-6.0703,-6.0775,-6.0807,-6.0833,-6.0826,-6.0419,0,0,0,0,0,-6.0306,-6.0386,-6.0393,-6.0531,-6.0551,-6.0535,-6.0577,-6.0547,-6.0582,-6.0596,-6.0605,-6.0641,-6.0713,-6.0761,-6.0828,-6.0996,-6.0999,-6.1075,-6.1101,-6.1122,-6.1139,-6.1228,-6.1261,-6.0908,-6.0907,-6.0907,0,0,-6.0405,-6.0422,-6.0475,-6.0558,-6.0582,-6.0666,-6.0548,-6.0642,-6.0703,-6.061,-6.0733,-6.0742,-6.0779,-6.0929,-6.0995,-6.0942,-6.1238,-6.1142,-6.1158,-6.1164,-6.1247,-6.128,-6.131,-6.0918,-6.0916,-6.0914,0,0,-6.0627,-6.065,-6.0766,-6.0793,-6.0831,-6.0819,-6.0848,-6.0871,-6.0873,-6.0996,-6.0928,-6.1001,-6.1126,-6.1155,-6.1186,-6.1423,-6.1366,-6.1446,-6.1579,-6.1666,-6.1693,-6.1718,-6.18,-6.183,-6.1464,-6.1464,-6.1464,0,-6.0745,-6.0869,-6.0832,-6.093,-6.0968,-6.089,-6.1006,-6.1034,-6.1093,-6.112,-6.1061,-6.1216,-6.1236,-6.139,-6.1448,-6.1477,-6.1506,-6.144,-6.1693,-6.1717,-6.1739,-6.1817,-6.1848,-6.1473,-6.1472,-6.1471,-6.147,0,-6.1012,-6.1099,-6.1188,-6.1246,-6.1295,-6.1403,-6.1381,-6.1434,-6.1402,-6.1396,-6.1523,-6.1544,-6.1612,-6.1648,-6.1617,-6.1799,-6.1764,-6.17,-6.1592,-6.1783,-6.1854,-6.1884,-6.1487,-6.1483,-6.1481,-6.1478,0,0,-6.1317,-6.1355,-6.1388,-6.1413,-6.1451,-6.1517,-6.1622,-6.1689,-6.1735,-6.1779,-6.1864,-6.1973,-6.1914,-6.1949,-6.1921,-6.1998,-6.2181,-6.1923,-6.1923,-6.1968,-6.238,-6.2426,-6.2461,-6.2145,-6.2151,-6.2155,-6.2376,0,-6.1537,-6.1717,-6.1687,-6.186,-6.194,-6.1868,-6.1958,-6.1991,-6.199,-6.2057,-6.2055,-6.2132,-6.2049,-6.207,-6.2143,-6.2143,-6.2263,-6.2127,-6.2222,-6.2226,-6.2211,-6.2499,-6.2548,-6.2756,-6.2405,-6.2409,-6.2413,0,-6.1817,-6.1871,-6.2053,-6.2078,-6.211,-6.2192,-6.2251,-6.2317,-6.2353,-6.2347,-6.2388,-6.2345,-6.2449,-6.2343,-6.2483,-6.2392,-6.243,-6.2436,-6.2443,-6.2448,-6.2328,-6.2509,-6.2821,-6.2851,-6.2457,-6.2454,-6.2451,0,-6.2018,-6.2137,-6.2261,-6.2285,-6.2318,-6.2377,-6.2394,-6.2424,-6.2466,-6.2519,-6.2546,-6.261,-6.2645,-6.2695,-6.2671,-6.2597,-6.2817,-6.2708,-6.2812,-6.2813,-6.2859,-6.2856,-6.3178,-6.2889,-6.2889,-6.2888,-6.2888,0,-6.2265,-6.2378,-6.2352,-6.2428,-6.2553,-6.2518,-6.2642,-6.265,-6.2678,-6.2753,-6.2696,-6.2768,-6.2734,-6.2804,-6.2786,-6.2904,-6.2921,-6.2918,-6.2911,-6.2921,-6.2921,-6.2942,-6.2926,-6.2896,-6.2895,-6.2893,-6.2892,0,-6.2509,-6.2496,-6.2626,-6.2648,-6.2656,-6.2747,-6.2764,-6.2835,-6.2831,-6.2927,-6.2948,-6.294,-6.3019,-6.3002,-6.3089,-6.3077,-6.3225,-6.3202,-6.3213,-6.3206,-6.331,-6.3299,-6.3654,-6.3698,-6.3384,-6.3387,-6.339,0,-6.2665,-6.2751,-6.2782,-6.2829,-6.285,-6.2926,-6.297,-6.294,-6.2987,-6.3035,-6.31,-6.3175,-6.3232,-6.3362,-6.3364,-6.343,-6.3406,-6.3527,-6.3415,-6.3422,-6.3404,-6.3398,-6.3405,-6.3547,-6.3551,-6.3554,-6.3556,0,-6.2943,-6.2933,-6.2998,-6.3062,-6.3116,-6.3164,-6.3207,-6.3249,-6.3223,-6.3279,-6.336,-6.3405,-6.3494,-6.3568,-6.3629,-6.3645,-6.3596,-6.3592,-6.3619,-6.3628,-6.3629,-6.3627,-6.3269,-6.3583,-6.358,-6.3578,-6.3577,-6.3576,-6.3146,-6.3218,-6.3251,-6.3326,-6.3356,-6.3397,-6.3465,-6.3469,-6.3536,-6.3606,-6.3585,-6.3677,-6.3711,-6.3788,-6.3812,-6.3883,-6.3837,-6.3877,-6.3887,-6.3896,-6.3907,-6.3622,-6.3894,-6.3894,-6.3893,-6.3892,-6.3892,0,-6.3417,-6.3436,-6.3505,-6.3568,-6.3627,-6.3578,-6.3623,-6.3675,-6.3756,-6.3793,-6.3851,-6.3944,-6.4016,-6.4025,-6.4092,-6.4147,-6.4126,-6.4166,-6.4159,-6.4163,-6.3946,-6.3914,-6.4181,-6.4181,-6.4181,-6.4181,-6.4181,-6.4181,-6.3565,-6.3685,-6.3679,-6.3813,-6.383,-6.3919,-6.3949,-6.3988,-6.4016,-6.4122,-6.4182,-6.4188,-6.4213,-6.4283,-6.4346,-6.4347,-6.4373,-6.4421,-6.4412,-6.4208,-6.4179,-6.4151,-6.4121,-6.4428,-6.4428,-6.4624,-6.4625,-6.4627]},{"header":{"parameterUnit":"m.s-1","parameterCategory":1,"la1":30.2991,"la2":30.254,"lo1":-89.0895,"lo2":-89.0444,"dy":0.0017,"dx":0.0017,"nx":28,"ny":28,"refTime":"2025-12-17T03:00:00:Z","depth":0,"parameterNumber":3,"parameterNumberName":"V-component_of_WINDS"},"data":[0,0,0,0,0,0,0,0,0,0,0,0,0,0,0,0,0,0,0,0,0,0,0,0,0,0,0,0,0,0,0,0,0,0,0,0,0,0,0,0,0,0,0,0,0,0,0,0,0,0,0,0,0,0,0,0,0,0,0.3384,0.3384,0,0.3408,0.3408,0.3408,0.3402,0.3402,0.3401,0.3401,0.3424,0.3425,0.3426,0,0,0,0,0,0,0,0,0,0,0,0,0,0.3335,0.3336,0.3384,0.3384,0.3385,0.3408,0.3408,0.3408,0.3402,0.3402,0.3401,0.3401,0.3424,0.3425,0.3426,0,0,0,0,0,0,0,0,0,0,0,0,0,0.3357,0.3336,0.3384,0.3385,0.3385,0.3408,0.3408,0.3409,0.3403,0.3402,0.3401,0.3401,0.3423,0.3425,0.3426,0.345,0,0,0.3431,0.3432,0,0,0,0,0,0,0,0,0.3356,0.3359,0.3384,0.3385,0.3385,0.3401,0.3399,0.3422,0.3403,0.3396,0.3401,0.34,0.3417,0.3419,0.3425,0.3451,0.3452,0.3431,0.3432,0.3433,0.3433,0,0,0,0,0,0,0,0.3354,0.3358,0.3393,0.3385,0.3385,0.3384,0.3386,0.3403,0.341,0.3396,0.3396,0.3399,0.3417,0.3423,0.3425,0.3452,0.3431,0.3433,0.3433,0.3434,0.3502,0.3503,0,0,0,0,0,0,0.3352,0.3357,0.3393,0.3394,0.3368,0.3385,0.3388,0.3397,0.341,0.3411,0.34,0.3399,0.3421,0.3424,0.3426,0.3457,0.3433,0.3434,0.3435,0.3501,0.3502,0.3503,0,0,0,0,0,0,0.3351,0.3356,0.3392,0.3375,0.338,0.3387,0.3397,0.3398,0.3404,0.3412,0.3413,0.3405,0.3421,0.3424,0.3445,0.3457,0.3435,0.3436,0.35,0.3501,0.3503,0.3516,0,0,0,0,0,0,0.335,0.3355,0.3364,0.3376,0.3381,0.341,0.3398,0.3399,0.3407,0.3406,0.3417,0.3419,0.342,0.3443,0.3446,0.3459,0.3438,0.3499,0.3501,0.3502,0.3515,0.3518,0.3521,0,0,0,0,0,0.3348,0.3366,0.3364,0.3369,0.3391,0.341,0.3413,0.3415,0.3408,0.3417,0.3423,0.3418,0.3455,0.3445,0.3449,0.3462,0.3498,0.35,0.3502,0.3514,0.3517,0.3521,0,0,0,0,0,0,0.3354,0.3367,0.3366,0.3387,0.3398,0.3409,0.342,0.3419,0.3431,0.343,0.3431,0.3434,0.3456,0.3461,0.3449,0.3487,0.3476,0.3479,0.3483,0.3487,0.349,0.3488,0.3439,0,0,0,0,0,0.3358,0.3372,0.3383,0.3401,0.3407,0.3413,0.3421,0.3422,0.3433,0.3437,0.3444,0.3454,0.3469,0.3478,0.3491,0.3516,0.3519,0.3527,0.353,0.3533,0.3535,0.3551,0.3556,0.3509,0.3509,0.3509,0,0,0.3365,0.3375,0.3383,0.3402,0.3411,0.3426,0.3416,0.3432,0.3444,0.3439,0.346,0.3466,0.3478,0.3501,0.3512,0.3506,0.3549,0.3535,0.3537,0.3538,0.3554,0.3558,0.3562,0.3511,0.351,0.351,0,0,0.3388,0.3396,0.3413,0.3422,0.3436,0.344,0.3445,0.3457,0.3461,0.3482,0.348,0.3494,0.3518,0.3528,0.3536,0.3566,0.3563,0.357,0.3585,0.3601,0.3605,0.3608,0.3621,0.3625,0.3573,0.3573,0.3573,0,0.3396,0.3419,0.3422,0.3439,0.3449,0.3447,0.3465,0.3474,0.3491,0.3498,0.3491,0.3524,0.3531,0.3559,0.3566,0.3572,0.3578,0.3569,0.3604,0.3607,0.3611,0.3623,0.3627,0.3574,0.3573,0.3573,0.3573,0,0.3429,0.3446,0.3458,0.3476,0.3487,0.3505,0.3511,0.3522,0.3523,0.3529,0.3552,0.3562,0.3578,0.3585,0.3585,0.3613,0.3609,0.3604,0.3592,0.3616,0.3627,0.3632,0.3575,0.3574,0.3574,0.3574,0,0,0.3454,0.3476,0.3481,0.349,0.3506,0.3519,0.3538,0.3556,0.3566,0.3578,0.3595,0.3617,0.3613,0.3622,0.3623,0.3637,0.3663,0.363,0.363,0.3637,0.3698,0.3703,0.3708,0.3662,0.3663,0.3663,0.3697,0,0.3479,0.3512,0.3517,0.3547,0.3563,0.3563,0.358,0.3592,0.3599,0.3614,0.3621,0.3638,0.363,0.3636,0.365,0.3657,0.3676,0.3655,0.3678,0.3679,0.3676,0.3714,0.3718,0.375,0.3702,0.3702,0.3703,0,0.3512,0.3527,0.3559,0.3577,0.3584,0.3598,0.3617,0.3631,0.3646,0.365,0.3662,0.3663,0.3684,0.3671,0.3701,0.3687,0.3697,0.3703,0.3704,0.3707,0.3693,0.3719,0.3759,0.3765,0.371,0.3709,0.3709,0,0.3529,0.3558,0.3581,0.3589,0.3609,0.362,0.3629,0.3643,0.3655,0.3671,0.3679,0.3696,0.3706,0.372,0.3727,0.3717,0.3757,0.3744,0.3762,0.3762,0.377,0.3769,0.3814,0.3775,0.3775,0.3774,0.3774,0,0.3557,0.3577,0.359,0.3604,0.3627,0.3634,0.3656,0.3665,0.3678,0.3695,0.3696,0.3712,0.3719,0.3736,0.3741,0.3766,0.377,0.3775,0.3776,0.3775,0.3775,0.3782,0.3781,0.3776,0.3775,0.3775,0.3775,0,0.3579,0.3588,0.3615,0.3633,0.3638,0.3654,0.367,0.3685,0.3693,0.3714,0.372,0.3732,0.3753,0.3761,0.3785,0.3789,0.3818,0.3817,0.3814,0.3814,0.3832,0.3831,0.3884,0.3892,0.3846,0.3846,0.3846,0,0.3596,0.3612,0.3633,0.3645,0.3655,0.3674,0.3687,0.3694,0.3707,0.3728,0.3741,0.3762,0.3779,0.3813,0.3824,0.3843,0.3844,0.3861,0.3846,0.3846,0.3846,0.3845,0.3848,0.3864,0.3864,0.3864,0.3865,0,0.3627,0.3632,0.365,0.3671,0.3687,0.3703,0.3719,0.3729,0.3739,0.3754,0.3777,0.379,0.3818,0.3839,0.386,0.387,0.387,0.3869,0.3875,0.3875,0.3873,0.3876,0.3822,0.3868,0.3868,0.3867,0.3867,0.3867,0.3649,0.3664,0.3682,0.3703,0.3717,0.3733,0.3749,0.376,0.3779,0.3802,0.3805,0.383,0.3847,0.3876,0.3887,0.3907,0.3902,0.3909,0.3911,0.3913,0.3916,0.3869,0.391,0.391,0.391,0.391,0.391,0,0.3681,0.3693,0.3713,0.3737,0.3754,0.3754,0.3773,0.3787,0.3809,0.3826,0.3844,0.3871,0.3893,0.3907,0.393,0.3943,0.3944,0.3949,0.3948,0.3951,0.3917,0.3911,0.3948,0.3948,0.3948,0.3948,0.3948,0.3948,0.37,0.3727,0.3734,0.3769,0.3781,0.3806,0.3817,0.3833,0.3846,0.3877,0.3896,0.3906,0.3922,0.3946,0.3967,0.3971,0.3979,0.3985,0.3989,0.3957,0.3953,0.3949,0.3944,0.3987,0.3987,0.4021,0.4021,0.4021]}]]